IZ0QWM-13 Scandriglia IT current weather conditions

sailwx.info

Wind from 059

Air temperature 10.6° C
Dewpoint 9.0° C

Last reported at 2015-Apr-26 01:46 UTC.
Time now 2015-Apr-26 02:51 UTC

Location: N 42°10' E 012°47'.
View on Google Maps.

See reports from other nearby stations

  
Tides and Currents Weather Stations Pressure Air Temp Water Temp Dewpoint Dewpoint Depression Visibility Wind Speed Wind Dir Waves Ship Positions
date/time (UTC)wind fromknots sea level pressurealtimeterstation pressurevisibilityair tempwater tempwave heightnotes
2015-Apr-26 01:46 059 10.6
2015-Apr-26 01:36 125 11.1
2015-Apr-26 01:26 125 11.1
2015-Apr-26 01:16 125 11.1
2015-Apr-26 01:06 125 11.1
2015-Apr-26 00:56 125 11.1
2015-Apr-26 00:46 125 11.1
2015-Apr-26 00:36 125 11.1
2015-Apr-26 00:26 125 11.1
2015-Apr-26 00:16 125 11.1
2015-Apr-26 00:06 125 11.1
2015-Apr-25 23:56 125 11.1
2015-Apr-25 23:46 125 11.7
2015-Apr-25 23:36 125 11.7
2015-Apr-25 23:26 125 11.7
2015-Apr-25 23:16 125 12.2
2015-Apr-25 23:06 125 12.2
2015-Apr-25 22:56 125 12.2
2015-Apr-25 22:46 125 11.7
2015-Apr-25 22:36 068 2 gusting 3 11.7
2015-Apr-25 22:26 065 12.2
2015-Apr-25 22:16 136 12.8
2015-Apr-25 22:06 136 13.3
2015-Apr-25 21:56 136 13.3
2015-Apr-25 21:46 136 13.3
2015-Apr-25 21:36 136 13.3
2015-Apr-25 21:26 136 12.8
2015-Apr-25 21:16 136 12.8
2015-Apr-25 21:06 136 12.8
2015-Apr-25 20:56 136 12.8
2015-Apr-25 20:46 136 13.3
2015-Apr-25 20:36 136 13.3
2015-Apr-25 20:26 136 13.9
2015-Apr-25 20:16 136 13.9
2015-Apr-25 20:06 136 14.4
2015-Apr-25 19:56 136 15.0
2015-Apr-25 19:46 136 15.0
2015-Apr-25 19:36 136 15.0
2015-Apr-25 19:26 136 15.0
2015-Apr-25 19:16 136 15.6
2015-Apr-25 19:06 136 16.1
2015-Apr-25 18:56 136 16.1
2015-Apr-25 18:46 136 16.1
2015-Apr-25 18:36 136 16.7
2015-Apr-25 18:26 136 16.7
2015-Apr-25 18:16 155 17.2
2015-Apr-25 18:06 177 17.2
2015-Apr-25 17:56 183 6 gusting 13 18.3
2015-Apr-25 17:46 174 3 gusting 6 18.9
2015-Apr-25 17:36 208 19.4
2015-Apr-25 17:26 184 20.0
2015-Apr-25 17:16 184 20.6
2015-Apr-25 17:06 184 20.6
2015-Apr-25 16:56 184 21.1
2015-Apr-25 16:46 184 21.1
2015-Apr-25 16:36 184 21.1
2015-Apr-25 16:26 184 21.1
2015-Apr-25 16:16 184 20.6
2015-Apr-25 16:06 184 20.0
2015-Apr-25 15:56 184 20.0
2015-Apr-25 15:46 273 20.6
2015-Apr-25 15:36 273 21.1
2015-Apr-25 15:26 273 21.1
2015-Apr-25 15:16 273 21.7
2015-Apr-25 15:06 273 21.1
2015-Apr-25 14:56 359 21.7
2015-Apr-25 14:46 359 22.8
2015-Apr-25 14:36 359 22.2
2015-Apr-25 14:26 359 22.2
2015-Apr-25 14:16 359 21.7
2015-Apr-25 14:06 152 20.6
2015-Apr-25 13:56 190 20.6
2015-Apr-25 13:46 190 20.0
2015-Apr-25 13:36 359 20.0
2015-Apr-25 13:26 297 20.0
2015-Apr-25 13:16 218 20.0
2015-Apr-25 13:06 141 20.0
2015-Apr-25 12:56 271 20.0
2015-Apr-25 12:46 271 19.4
2015-Apr-25 12:36 239 19.4
2015-Apr-25 12:26 148 19.4
2015-Apr-25 12:16 278 2 gusting 9 19.4
2015-Apr-25 12:06 153 19.4
2015-Apr-25 11:56 359 19.4
2015-Apr-25 11:46 359 19.4
2015-Apr-25 11:36 359 19.4
2015-Apr-25 11:26 359 0 gusting 9 19.4
2015-Apr-25 11:16 032 19.4
2015-Apr-25 11:06 165 5 gusting 8 18.9
2015-Apr-25 10:56 359 18.9
2015-Apr-25 10:46 300 18.3
2015-Apr-25 10:36 219 18.3
2015-Apr-25 10:26 211 1 gusting 8 18.9
2015-Apr-25 10:16 236 3 gusting 7 18.9
2015-Apr-25 10:06 193 18.3
2015-Apr-25 09:56 255 17.8
2015-Apr-25 09:46 335 17.8
2015-Apr-25 09:36 308 4 gusting 7 17.8
2015-Apr-25 09:26 219 4 gusting 7 17.8
2015-Apr-25 09:16 204 2 gusting 7 17.2
2015-Apr-25 09:06 359 17.2
2015-Apr-25 08:56 359 16.7
2015-Apr-25 08:46 301 16.7
2015-Apr-25 08:36 150 16.7
2015-Apr-25 08:26 280 16.7
2015-Apr-25 08:16 169 16.1
2015-Apr-25 08:06 298 15.6
2015-Apr-25 07:56 190 15.6
2015-Apr-25 07:46 359 15.6
2015-Apr-25 07:36 359 16.1
2015-Apr-25 07:26 077 16.7
2015-Apr-25 07:16 077 16.1
2015-Apr-25 07:06 077 15.6
2015-Apr-25 06:56 077 15.6
2015-Apr-25 06:46 077 15.0
2015-Apr-25 06:36 077 13.9
2015-Apr-25 06:26 077 13.3
2015-Apr-25 06:16 077 12.8
2015-Apr-25 06:06 077 11.7
2015-Apr-25 05:56 062 11.7
2015-Apr-25 05:46 062 11.1
2015-Apr-25 05:36 062 11.1
2015-Apr-25 05:26 041 10.6
2015-Apr-25 05:16 066 10.0
2015-Apr-25 05:06 066 10.6
2015-Apr-25 04:56 066 10.0
2015-Apr-25 04:46 066 10.0
2015-Apr-25 04:36 100 10.0
2015-Apr-25 04:26 100 10.0
2015-Apr-25 04:16 039 10.0
2015-Apr-25 04:06 039 10.0
2015-Apr-25 03:56 039 10.0
2015-Apr-25 03:46 039 10.0
2015-Apr-25 03:36 070 10.0
2015-Apr-25 03:26 070 10.0
2015-Apr-25 03:16 070 10.0
2015-Apr-25 03:06 070 10.6
2015-Apr-25 02:56 070 10.6
2015-Apr-25 02:46 070 10.6
2015-Apr-25 02:36 070 10.6
2015-Apr-25 02:26 070 10.6
2015-Apr-25 02:16 089 11.1
2015-Apr-25 02:06 089 10.6
2015-Apr-25 01:56 079 10.6
2015-Apr-25 01:46 079 11.1
2015-Apr-25 01:36 091 11.1
2015-Apr-25 01:26 091 11.1
2015-Apr-25 01:16 091 11.7
2015-Apr-25 01:06 091 11.7
2015-Apr-25 00:56 091 11.7
2015-Apr-25 00:46 049 12.2
2015-Apr-25 00:36 198 12.2
2015-Apr-25 00:26 198 12.2
2015-Apr-25 00:16 198 12.2
2015-Apr-25 00:06 198 12.8
2015-Apr-24 23:56 198 12.8
2015-Apr-24 23:46 198 12.8
2015-Apr-24 23:36 198 12.8
2015-Apr-24 23:26 198 12.8
2015-Apr-24 23:16 198 12.8
2015-Apr-24 23:06 198 12.8
2015-Apr-24 22:56 198 12.8
2015-Apr-24 22:46 198 12.8
2015-Apr-24 22:36 198 12.8
2015-Apr-24 22:26 198 12.8
2015-Apr-24 22:16 198 12.2
2015-Apr-24 22:06 198 12.2
2015-Apr-24 21:56 198 12.8
2015-Apr-24 21:46 198 12.8
2015-Apr-24 21:36 198 13.9
2015-Apr-24 21:26 198 13.3
2015-Apr-24 21:16 198 13.3
2015-Apr-24 21:06 198 13.3
2015-Apr-24 20:56 198 13.3
2015-Apr-24 20:46 198 13.9
2015-Apr-24 20:36 198 13.9
2015-Apr-24 20:26 198 14.4
2015-Apr-24 20:16 198 14.4
2015-Apr-24 20:06 198 15.0
2015-Apr-24 19:56 198 15.0
2015-Apr-24 19:45 198 15.0
2015-Apr-24 19:35 198 15.6
2015-Apr-24 19:25 198 15.6
2015-Apr-24 19:15 198 15.6
2015-Apr-24 19:05 198 15.6
2015-Apr-24 18:55 198 15.6
2015-Apr-24 18:45 198 16.1
2015-Apr-24 18:35 174 16.1
2015-Apr-24 18:25 193 16.1
2015-Apr-24 18:15 158 6 gusting 12 16.7
2015-Apr-24 18:05 179 16.7
2015-Apr-24 17:55 181 6 gusting 12 16.7
2015-Apr-24 17:45 190 4 gusting 12 17.2
2015-Apr-24 17:35 184 18.3
2015-Apr-24 17:25 184 3 gusting 8 18.3
2015-Apr-24 17:15 174 6 gusting 6 18.3
2015-Apr-24 17:05 339 18.9
2015-Apr-24 16:55 015 19.4
2015-Apr-24 16:45 139 20.0
2015-Apr-24 16:35 359 20.0
2015-Apr-24 16:25 359 20.6
2015-Apr-24 16:15 231 20.6
2015-Apr-24 16:05 190 4 gusting 6 21.1
2015-Apr-24 15:55 359 21.7
2015-Apr-24 15:45 181 21.7
2015-Apr-24 15:35 181 21.7
2015-Apr-24 15:25 359 22.2
2015-Apr-24 15:15 359 21.7
2015-Apr-24 15:05 359 21.7
2015-Apr-24 14:55 359 21.7
2015-Apr-24 14:45 359 21.7
2015-Apr-24 14:35 359 21.7
2015-Apr-24 14:25 359 21.7
2015-Apr-24 14:15 359 21.1
2015-Apr-24 14:05 359 21.1
2015-Apr-24 13:55 322 21.7
2015-Apr-24 13:45 359 21.1
2015-Apr-24 13:35 359 21.1
2015-Apr-24 13:25 359 21.1
2015-Apr-24 13:15 359 21.1
2015-Apr-24 13:05 359 21.1
2015-Apr-24 12:55 359 20.6
2015-Apr-24 12:45 359 20.6
2015-Apr-24 12:35 359 21.1
2015-Apr-24 12:25 359 20.6
2015-Apr-24 12:15 359 20.0
2015-Apr-24 12:05 359 20.0
2015-Apr-24 11:55 204 19.4
2015-Apr-24 11:45 204 20.0
2015-Apr-24 11:35 204 19.4
2015-Apr-24 11:25 201 19.4
2015-Apr-24 11:15 255 0 gusting 6 19.4
2015-Apr-24 11:05 155 18.9
2015-Apr-24 10:55 297 3 gusting 5 18.9
2015-Apr-24 10:45 359 18.3
2015-Apr-24 10:35 359 18.3
2015-Apr-24 10:25 359 18.3
2015-Apr-24 10:15 359 17.8
2015-Apr-24 10:05 089 17.8
2015-Apr-24 09:55 089 17.8
2015-Apr-24 09:45 089 17.8
2015-Apr-24 09:35 089 17.2
2015-Apr-24 09:25 089 17.2
2015-Apr-24 09:15 089 17.2
2015-Apr-24 09:05 089 17.8
2015-Apr-24 08:55 089 17.8
2015-Apr-24 08:45 089 17.8
2015-Apr-24 08:35 089 17.2
2015-Apr-24 08:25 089 16.7
2015-Apr-24 08:15 089 16.7
2015-Apr-24 08:05 089 16.7
2015-Apr-24 07:55 089 16.7
2015-Apr-24 07:45 089 16.7
2015-Apr-24 07:35 089 16.7
2015-Apr-24 07:25 089 16.1
2015-Apr-24 07:15 089 15.6
2015-Apr-24 07:05 089 15.6
2015-Apr-24 06:55 089 15.6
2015-Apr-24 06:45 089 15.6
2015-Apr-24 06:35 089 15.6
2015-Apr-24 06:25 089 15.0
2015-Apr-24 06:15 089 14.4
2015-Apr-24 06:05 089 13.3
2015-Apr-24 05:55 089 12.8
2015-Apr-24 05:45 089 12.8
2015-Apr-24 05:35 089 12.8
2015-Apr-24 05:25 089 12.8
2015-Apr-24 05:15 089 12.8
2015-Apr-24 05:05 089 12.8
2015-Apr-24 04:55 089 12.8
2015-Apr-24 04:45 089 12.8
2015-Apr-24 04:35 089 12.8
2015-Apr-24 04:25 089 12.8
2015-Apr-24 04:15 089 12.8
2015-Apr-24 04:05 089 12.8
2015-Apr-24 03:55 089 12.8
2015-Apr-24 03:45 027 12.8
2015-Apr-24 03:35 027 13.3
2015-Apr-24 03:25 027 13.3
2015-Apr-24 03:15 027 13.3
2015-Apr-24 03:05 044 13.3
2015-Apr-24 02:55 044 13.3
2015-Apr-24 02:45 180 13.3
2015-Apr-24 02:35 180 13.9
2015-Apr-24 02:25 180 14.4
2015-Apr-24 02:15 180 14.4
2015-Apr-24 02:05 238 13.9